Location: Newark
(45.9456°N, 15.4064°E)
Time: 09:51:37
(UTC+00:00)

Vanguard 2 - Pass Details

Date: 01 February 2020
Orbit: 552 x 2939 km, 32.9° (Epoch: 24 February)

Event Time Altitude Azimuth Distance (km) Brightness Sun altitude
Rises 04:59:22 0° 194° (SSW) 6,695 12.3 -14.4°
Reaches altitude 10° 05:06:00 10° 179° (S) 5,760 12.1 -13.3°
Maximum altitude 05:16:12 19° 143° (SE) 4,911 12.3 -11.6°
Drops below altitude 10° 05:25:26 10° 107° (ESE) 5,191 13.4 -10.0°
Sets 05:30:48 0° 91° (E) 5,835 13.8 -9.1°
